| time (UTC) | temp C | wind direction | speed KPH | gust KPH | rain 1hr cm | rain 24hr cm | rain mn cm | humidity % | barometer mb |
| 20260507003034 | 11 | 257 | 0.0 | 0.0 | 0.00 | 0.00 | 0.00 | 59 | 1009.3 |
| 20260507002539 | 11 | 278 | 0.0 | 0.0 | 0.00 | 0.00 | 0.00 | 58 | 1009.5 |
| 20260507002041 | 11 | 278 | 0.0 | 0.0 | 0.00 | 0.00 | 0.00 | 57 | 1009.4 |
| 20260507001528 | 11 | 278 | 0.0 | 1.6 | 0.00 | 0.00 | 0.00 | 56 | 1009.5 |
| 20260507001036 | 11 | 278 | 0.0 | 1.6 | 0.00 | 0.00 | 0.00 | 55 | 1009.5 |
| 20260507000539 | 11 | 278 | 0.0 | 1.6 | 0.00 | 0.00 | 0.00 | 54 | 1009.5 |
| 20260507000051 | 12 | 278 | 0.0 | 1.6 | 0.00 | 0.00 | 0.00 | 54 | 1009.5 |
| 20260506235543 | 12 | 278 | 0.0 | 0.0 | 0.00 | 0.00 | 0.00 | 53 | 1009.4 |
| 20260506235041 | 12 | 41 | 0.0 | 0.0 | 0.00 | 0.00 | 0.00 | 54 | 1009.6 |
| 20260506234542 | 12 | 41 | 0.0 | 0.0 | 0.00 | 0.00 | 0.00 | 53 | 1009.6 |
| 20260506234023 | 12 | 41 | 0.0 | 0.0 | 0.00 | 0.00 | 0.00 | 53 | 1009.6 |
| 20260506233527 | 12 | 41 | 0.0 | 3.2 | 0.00 | 0.00 | 0.00 | 52 | 1009.6 |
| 20260506233037 | 12 | 41 | 0.0 | 3.2 | 0.00 | 0.00 | 0.00 | 52 | 1009.6 |
| 20260506232559 | 12 | 56 | 0.0 | 1.6 | 0.00 | 0.00 | 0.00 | 52 | 1009.5 |
| 20260506232042 | 12 | 72 | 0.0 | 1.6 | 0.00 | 0.00 | 0.00 | 52 | 1009.5 |
| 20260506231546 | 12 | 72 | 0.0 | 4.8 | 0.00 | 0.00 | 0.00 | 52 | 1009.5 |
| 20260506231030 | 12 | 61 | 0.0 | 4.8 | 0.00 | 0.00 | 0.00 | 52 | 1009.6 |
| 20260506230527 | 12 | 78 | 0.0 | 1.6 | 0.00 | 0.00 | 0.00 | 52 | 1009.5 |
| 20260506230045 | 12 | 72 | 0.0 | 1.6 | 0.00 | 0.00 | 0.00 | 52 | 1009.5 |
| 20260506225537 | 12 | 72 | 0.0 | 1.6 | 0.00 | 0.00 | 0.00 | 53 | 1009.5 |
| 20260506225036 | 12 | 71 | 0.0 | 1.6 | 0.00 | 0.00 | 0.00 | 54 | 1009.5 |
| 20260506224522 | 12 | 76 | 0.0 | 12.9 | 0.00 | 0.00 | 0.00 | 55 | 1009.5 |
| 20260506224046 | 12 | 84 | 0.0 | 12.9 | 0.00 | 0.00 | 0.00 | 55 | 1009.6 |
| 20260506223543 | 13 | 64 | 0.0 | 6.4 | 0.00 | 0.00 | 0.00 | 51 | 1009.6 |
| 20260506223047 | 13 | 263 | 0.0 | 0.0 | 0.00 | 0.00 | 0.00 | 50 | 1009.5 |
| 20260506222526 | 13 | 263 | 0.0 | 0.0 | 0.00 | 0.00 | 0.00 | 50 | 1009.5 |
| 20260506222034 | 13 | 263 | 0.0 | 1.6 | 0.00 | 0.00 | 0.00 | 50 | 1009.5 |
| 20260506221520 | 13 | 263 | 0.0 | 3.2 | 0.00 | 0.00 | 0.00 | 51 | 1009.4 |
| 20260506221039 | 13 | 263 | 0.0 | 3.2 | 0.00 | 0.00 | 0.00 | 52 | 1009.5 |
| 20260506220533 | 13 | 251 | 0.0 | 1.6 | 0.00 | 0.00 | 0.00 | 55 | 1009.5 |
| 20260506215527 | 13 | 280 | 1.6 | 3.2 | 0.00 | 0.00 | 0.00 | 57 | 1009.6 |
| 20260506215040 | 13 | 278 | 0.0 | 1.6 | 0.00 | 0.00 | 0.00 | 54 | 1009.6 |
| 20260506214546 | 13 | 278 | 0.0 | 1.6 | 0.00 | 0.00 | 0.00 | 53 | 1009.6 |
| 20260506214032 | 13 | 278 | 0.0 | 1.6 | 0.00 | 0.00 | 0.00 | 51 | 1009.6 |
| 20260506213526 | 14 | 278 | 1.6 | 1.6 | 0.00 | 0.00 | 0.00 | 49 | 1009.6 |
| 20260506213028 | 14 | 278 | 0.0 | 1.6 | 0.00 | 0.00 | 0.00 | 47 | 1009.7 |
| 20260506212543 | 15 | 278 | 0.0 | 3.2 | 0.00 | 0.00 | 0.00 | 47 | 1009.7 |
| 20260506212021 | 15 | 264 | 1.6 | 3.2 | 0.00 | 0.00 | 0.00 | 46 | 1009.7 |
| 20260506211521 | 15 | 254 | 1.6 | 4.8 | 0.00 | 0.00 | 0.00 | 46 | 1009.6 |
| 20260506211029 | 15 | 246 | 3.2 | 4.8 | 0.00 | 0.00 | 0.00 | 47 | 1009.5 |
| 20260506210528 | 15 | 251 | 1.6 | 3.2 | 0.00 | 0.00 | 0.00 | 47 | 1009.5 |
| 20260506210046 | 15 | 245 | 0.0 | 3.2 | 0.00 | 0.00 | 0.00 | 46 | 1009.4 |
| 20260506205535 | 15 | 250 | 1.6 | 3.2 | 0.00 | 0.00 | 0.00 | 46 | 1009.4 |
| 20260506205033 | 15 | 247 | 0.0 | 0.0 | 0.00 | 0.00 | 0.00 | 45 | 1009.4 |
| 20260506204541 | 15 | 276 | 0.0 | 0.0 | 0.00 | 0.00 | 0.00 | 44 | 1009.3 |
| 20260506204021 | 15 | 276 | 0.0 | 0.0 | 0.00 | 0.00 | 0.00 | 44 | 1009.3 |
| 20260506203554 | 15 | 276 | 0.0 | 0.0 | 0.00 | 0.00 | 0.00 | 44 | 1009.2 |
| 20260506203022 | 15 | 276 | 0.0 | 0.0 | 0.00 | 0.00 | 0.00 | 44 | 1009.2 |
| 20260506202558 | 15 | 276 | 0.0 | 0.0 | 0.00 | 0.00 | 0.00 | 43 | 1009.2 |
| 20260506202028 | 16 | 276 | 0.0 | 1.6 | 0.00 | 0.00 | 0.00 | 42 | 1009.2 |
| 20260506201546 | 16 | 276 | 0.0 | 1.6 | 0.00 | 0.00 | 0.00 | 42 | 1009.1 |
| 20260506201043 | 16 | 276 | 0.0 | 1.6 | 0.00 | 0.00 | 0.00 | 41 | 1009.1 |
| 20260506200604 | 16 | 276 | 0.0 | 1.6 | 0.00 | 0.00 | 0.00 | 41 | 1009.0 |
| 20260506200106 | 16 | 276 | 0.0 | 3.2 | 0.00 | 0.00 | 0.00 | 40 | 1009.0 |
| 20260506195528 | 16 | 276 | 0.0 | 3.2 | 0.00 | 0.00 | 0.00 | 40 | 1009.0 |
| 20260506195023 | 17 | 282 | 1.6 | 8.0 | 0.00 | 0.00 | 0.00 | 38 | 1009.0 |
| 20260506194525 | 17 | 282 | 4.8 | 8.0 | 0.00 | 0.00 | 0.00 | 37 | 1008.9 |
| 20260506194035 | 17 | 259 | 4.8 | 6.4 | 0.00 | 0.00 | 0.00 | 36 | 1008.9 |
| 20260506193522 | 17 | 277 | 6.4 | 6.4 | 0.00 | 0.00 | 0.00 | 36 | 1008.8 |
| 20260506193023 | 18 | 276 | 4.8 | 6.4 | 0.00 | 0.00 | 0.00 | 35 | 1008.8 |
| 20260506192539 | 18 | 286 | 4.8 | 6.4 | 0.00 | 0.00 | 0.00 | 35 | 1008.8 |
| 20260506192040 | 18 | 276 | 3.2 | 4.8 | 0.00 | 0.00 | 0.00 | 34 | 1008.8 |
| 20260506191530 | 18 | 281 | 1.6 | 9.7 | 0.00 | 0.00 | 0.00 | 34 | 1008.8 |
| 20260506191043 | 19 | 276 | 3.2 | 9.7 | 0.00 | 0.00 | 0.00 | 33 | 1008.8 |
| 20260506190544 | 19 | 250 | 4.8 | 6.4 | 0.00 | 0.00 | 0.00 | 32 | 1008.7 |
| 20260506190046 | 19 | 252 | 1.6 | 4.8 | 0.00 | 0.00 | 0.00 | 30 | 1008.7 |
| 20260506185528 | 20 | 271 | 0.0 | 4.8 | 0.00 | 0.00 | 0.00 | 32 | 1008.7 |
| 20260506185036 | 20 | 284 | 3.2 | 4.8 | 0.00 | 0.00 | 0.00 | 31 | 1008.7 |
| 20260506184525 | 20 | 284 | 0.0 | 4.8 | 0.00 | 0.00 | 0.00 | 31 | 1008.7 |
| 20260506184025 | 20 | 309 | 3.2 | 6.4 | 0.00 | 0.00 | 0.00 | 29 | 1008.7 |
| 20260506183539 | 20 | 306 | 1.6 | 6.4 | 0.00 | 0.00 | 0.00 | 30 | 1008.7 |
| 20260506183025 | 21 | 290 | 3.2 | 6.4 | 0.00 | 0.00 | 0.00 | 29 | 1008.7 |
| 20260506182528 | 21 | 314 | 3.2 | 6.4 | 0.00 | 0.00 | 0.00 | 28 | 1008.7 |
| 20260506182034 | 21 | 319 | 0.0 | 0.0 | 0.00 | 0.00 | 0.00 | 27 | 1008.7 |
| 20260506181537 | 21 | 321 | 0.0 | 3.2 | 0.00 | 0.00 | 0.00 | 28 | 1008.7 |
| 20260506181044 | 21 | 354 | 0.0 | 3.2 | 0.00 | 0.00 | 0.00 | 28 | 1008.7 |
| 20260506180546 | 21 | 16 | 0.0 | 1.6 | 0.00 | 0.00 | 0.00 | 28 | 1008.7 |
| 20260506180108 | 21 | 46 | 0.0 | 3.2 | 0.00 | 0.00 | 0.00 | 27 | 1008.8 |
| 20260506175535 | 21 | 278 | 0.0 | 3.2 | 0.00 | 0.00 | 0.00 | 27 | 1008.7 |
| 20260506175046 | 21 | 303 | 0.0 | 4.8 | 0.00 | 0.00 | 0.00 | 27 | 1008.8 |
| 20260506174525 | 21 | 352 | 0.0 | 4.8 | 0.00 | 0.00 | 0.00 | 27 | 1008.9 |
| 20260506174041 | 21 | 293 | 0.0 | 4.8 | 0.00 | 0.00 | 0.00 | 27 | 1008.9 |
| 20260506173532 | 21 | 301 | 0.0 | 4.8 | 0.00 | 0.00 | 0.00 | 27 | 1008.9 |
| 20260506173022 | 21 | 297 | 0.0 | 9.7 | 0.00 | 0.00 | 0.00 | 27 | 1008.9 |
| 20260506172539 | 21 | 309 | 6.4 | 9.7 | 0.00 | 0.00 | 0.00 | 27 | 1009.0 |
| 20260506172024 | 21 | 314 | 3.2 | 6.4 | 0.00 | 0.00 | 0.00 | 27 | 1009.0 |
| 20260506171554 | 21 | 255 | 0.0 | 8.0 | 0.00 | 0.00 | 0.00 | 28 | 1008.9 |
| 20260506171047 | 20 | 252 | 4.8 | 9.7 | 0.00 | 0.00 | 0.00 | 27 | 1008.9 |
| 20260506170521 | 20 | 274 | 4.8 | 11.3 | 0.00 | 0.00 | 0.00 | 28 | 1009.0 |
| 20260506170046 | 20 | 295 | 1.6 | 11.3 | 0.00 | 0.00 | 0.00 | 30 | 1009.0 |
| 20260506165532 | 20 | 301 | 6.4 | 9.7 | 0.00 | 0.00 | 0.00 | 29 | 1008.9 |
| 20260506165027 | 20 | 281 | 1.6 | 8.0 | 0.00 | 0.00 | 0.00 | 29 | 1009.0 |
| 20260506164541 | 20 | 276 | 3.2 | 6.4 | 0.00 | 0.00 | 0.00 | 29 | 1009.1 |
| 20260506164023 | 20 | 315 | 3.2 | 8.0 | 0.00 | 0.00 | 0.00 | 28 | 1009.1 |
| 20260506163525 | 20 | 307 | 6.4 | 12.9 | 0.00 | 0.00 | 0.00 | 28 | 1009.1 |
| 20260506163042 | 21 | 283 | 11.3 | 12.9 | 0.00 | 0.00 | 0.00 | 27 | 1009.1 |
| 20260506162549 | 21 | 253 | 6.4 | 9.7 | 0.00 | 0.00 | 0.00 | 26 | 1009.1 |
| 20260506162041 | 22 | 259 | 0.0 | 8.0 | 0.00 | 0.00 | 0.00 | 25 | 1009.1 |
| 20260506161603 | 22 | 222 | 0.0 | 8.0 | 0.00 | 0.00 | 0.00 | 25 | 1009.1 |
| 20260506161021 | 22 | 125 | 0.0 | 1.6 | 0.00 | 0.00 | 0.00 | 26 | 1009.2 |
| 20260506160547 | 21 | 133 | 0.0 | 0.0 | 0.00 | 0.00 | 0.00 | 26 | 1009.2 |
| 20260506160106 | 21 | 328 | 0.0 | 3.2 | 0.00 | 0.00 | 0.00 | 27 | 1009.3 |
| 20260506155546 | 21 | 256 | 0.0 | 6.4 | 0.00 | 0.00 | 0.00 | 27 | 1009.3 |
| 20260506155050 | 20 | 218 | 1.6 | 9.7 | 0.00 | 0.00 | 0.00 | 28 | 1009.3 |
| 20260506154605 | 20 | 155 | 8.0 | 9.7 | 0.00 | 0.00 | 0.00 | 28 | 1009.4 |
| 20260506154041 | 20 | 98 | 0.0 | 6.4 | 0.00 | 0.00 | 0.00 | 27 | 1009.4 |
| 20260506153529 | 20 | 114 | 1.6 | 9.7 | 0.00 | 0.00 | 0.00 | 27 | 1009.4 |
| 20260506153028 | 20 | 83 | 3.2 | 14.5 | 0.00 | 0.00 | 0.00 | 28 | 1009.5 |
| 20260506152542 | 20 | 96 | 9.7 | 14.5 | 0.00 | 0.00 | 0.00 | 28 | 1009.5 |
| 20260506152037 | 20 | 112 | 1.6 | 8.0 | 0.00 | 0.00 | 0.00 | 28 | 1009.5 |
| 20260506151539 | 20 | 81 | 6.4 | 8.0 | 0.00 | 0.00 | 0.00 | 28 | 1009.5 |
| 20260506151023 | 20 | 50 | 1.6 | 9.7 | 0.00 | 0.00 | 0.00 | 29 | 1009.5 |
| 20260506150532 | 20 | 95 | 6.4 | 9.7 | 0.00 | 0.00 | 0.00 | 29 | 1009.6 |
| 20260506150105 | 20 | 53 | 1.6 | 9.7 | 0.00 | 0.00 | 0.00 | 29 | 1009.6 |
| 20260506145544 | 20 | 57 | 3.2 | 6.4 | 0.00 | 0.00 | 0.00 | 30 | 1009.7 |
| 20260506145048 | 20 | 101 | 1.6 | 9.7 | 0.00 | 0.00 | 0.00 | 30 | 1009.8 |
| 20260506144535 | 20 | 63 | 1.6 | 9.7 | 0.00 | 0.00 | 0.00 | 30 | 1009.9 |
| 20260506144044 | 20 | 39 | 4.8 | 8.0 | 0.00 | 0.00 | 0.00 | 30 | 1010.0 |
| 20260506143531 | 20 | 31 | 1.6 | 8.0 | 0.00 | 0.00 | 0.00 | 30 | 1010.0 |
| 20260506143024 | 20 | 349 | 3.2 | 8.0 | 0.00 | 0.00 | 0.00 | 30 | 1010.1 |
| 20260506142529 | 20 | 315 | 1.6 | 8.0 | 0.00 | 0.00 | 0.00 | 32 | 1010.2 |
| 20260506142033 | 19 | 319 | 0.0 | 3.2 | 0.00 | 0.00 | 0.00 | 31 | 1010.2 |
| 20260506141544 | 19 | 1 | 0.0 | 9.7 | 0.00 | 0.00 | 0.00 | 32 | 1010.4 |
| 20260506141043 | 19 | 56 | 0.0 | 9.7 | 0.00 | 0.00 | 0.00 | 32 | 1010.4 |
| 20260506140521 | 19 | 61 | 3.2 | 9.7 | 0.00 | 0.00 | 0.00 | 32 | 1010.5 |
| 20260506135533 | 19 | 33 | 0.0 | 6.4 | 0.00 | 0.00 | 0.00 | 31 | 1010.5 |
| 20260506135021 | 19 | 72 | 0.0 | 8.0 | 0.00 | 0.00 | 0.00 | 31 | 1010.6 |
| 20260506134525 | 20 | 315 | 0.0 | 11.3 | 0.00 | 0.00 | 0.00 | 31 | 1010.6 |
| 20260506134036 | 20 | 292 | 3.2 | 11.3 | 0.00 | 0.00 | 0.00 | 30 | 1010.7 |
| 20260506133527 | 20 | 323 | 0.0 | 9.7 | 0.00 | 0.00 | 0.00 | 30 | 1010.7 |
| 20260506133038 | 20 | 321 | 1.6 | 11.3 | 0.00 | 0.00 | 0.00 | 30 | 1010.8 |
| 20260506132544 | 20 | 319 | 3.2 | 11.3 | 0.00 | 0.00 | 0.00 | 31 | 1010.7 |
| 20260506132022 | 20 | 9 | 6.4 | 9.7 | 0.00 | 0.00 | 0.00 | 30 | 1010.8 |
| 20260506131522 | 20 | 331 | 3.2 | 8.0 | 0.00 | 0.00 | 0.00 | 31 | 1010.8 |
| 20260506131030 | 19 | 239 | 0.0 | 9.7 | 0.00 | 0.00 | 0.00 | 32 | 1010.9 |
| 20260506130530 | 18 | 113 | 6.4 | 16.1 | 0.00 | 0.00 | 0.00 | 33 | 1010.9 |
| 20260506130100 | 19 | 79 | 9.7 | 16.1 | 0.00 | 0.00 | 0.00 | 32 | 1011.0 |
| 20260506125609 | 19 | 85 | 0.0 | 9.7 | 0.00 | 0.00 | 0.00 | 33 | 1011.0 |
| 20260506125046 | 20 | 288 | 4.8 | 9.7 | 0.00 | 0.00 | 0.00 | 31 | 1011.0 |
| 20260506124534 | 20 | 307 | 1.6 | 9.7 | 0.00 | 0.00 | 0.00 | 32 | 1011.1 |
| 20260506124026 | 19 | 351 | 0.0 | 11.3 | 0.00 | 0.00 | 0.00 | 33 | 1011.2 |
| 20260506123537 | 19 | 249 | 8.0 | 11.3 | 0.00 | 0.00 | 0.00 | 34 | 1011.2 |
| 20260506123044 | 19 | 316 | 6.4 | 11.3 | 0.00 | 0.00 | 0.00 | 32 | 1011.2 |
| 20260506122547 | 19 | 170 | 1.6 | 12.9 | 0.00 | 0.00 | 0.00 | 34 | 1011.3 |
| 20260506122024 | 19 | 90 | 6.4 | 16.1 | 0.00 | 0.00 | 0.00 | 33 | 1011.4 |
| 20260506121557 | 20 | 58 | 9.7 | 16.1 | 0.00 | 0.00 | 0.00 | 32 | 1011.5 |
| 20260506121033 | 20 | 16 | 6.4 | 12.9 | 0.00 | 0.00 | 0.00 | 32 | 1011.5 |
| 20260506120535 | 20 | 181 | 0.0 | 9.7 | 0.00 | 0.00 | 0.00 | 32 | 1011.6 |
| 20260506120108 | 20 | 141 | 1.6 | 11.3 | 0.00 | 0.00 | 0.00 | 32 | 1011.6 |
| 20260506115528 | 20 | 248 | 3.2 | 9.7 | 0.00 | 0.00 | 0.00 | 33 | 1011.7 |
| 20260506115031 | 19 | 56 | 0.0 | 11.3 | 0.00 | 0.00 | 0.00 | 33 | 1011.8 |
| 20260506114527 | 20 | 158 | 4.8 | 11.3 | 0.00 | 0.00 | 0.00 | 32 | 1011.9 |
| 20260506114059 | 19 | 145 | 6.4 | 11.3 | 0.00 | 0.00 | 0.00 | 33 | 1011.9 |
| 20260506113544 | 19 | 205 | 0.0 | 6.4 | 0.00 | 0.00 | 0.00 | 34 | 1012.0 |
| 20260506113044 | 18 | 68 | 4.8 | 6.4 | 0.00 | 0.00 | 0.00 | 35 | 1012.0 |
| 20260506112551 | 18 | 240 | 1.6 | 14.5 | 0.00 | 0.00 | 0.00 | 35 | 1012.0 |
| 20260506112033 | 18 | 91 | 1.6 | 14.5 | 0.00 | 0.00 | 0.00 | 35 | 1012.1 |
| 20260506111544 | 18 | 65 | 6.4 | 12.9 | 0.00 | 0.00 | 0.00 | 34 | 1012.0 |
| 20260506111036 | 19 | 111 | 0.0 | 6.4 | 0.00 | 0.00 | 0.00 | 34 | 1012.1 |
| 20260506110536 | 18 | 146 | 0.0 | 6.4 | 0.00 | 0.00 | 0.00 | 34 | 1012.1 |
| 20260506110050 | 18 | 302 | 0.0 | 4.8 | 0.00 | 0.00 | 0.00 | 36 | 1012.2 |
| 20260506105531 | 18 | 266 | 0.0 | 14.5 | 0.00 | 0.00 | 0.00 | 36 | 1012.2 |
| 20260506105106 | 18 | 65 | 9.7 | 19.3 | 0.00 | 0.00 | 0.00 | 34 | 1012.3 |
| 20260506104528 | 18 | 164 | 9.7 | 19.3 | 0.00 | 0.00 | 0.00 | 35 | 1012.4 |
| 20260506104036 | 18 | 163 | 1.6 | 4.8 | 0.00 | 0.00 | 0.00 | 36 | 1012.3 |
| 20260506103527 | 18 | 49 | 0.0 | 8.0 | 0.00 | 0.00 | 0.00 | 38 | 1012.3 |
| 20260506103035 | 17 | 64 | 3.2 | 8.0 | 0.00 | 0.00 | 0.00 | 38 | 1012.3 |
| 20260506102529 | 17 | 290 | 3.2 | 12.9 | 0.00 | 0.00 | 0.00 | 38 | 1012.4 |
| 20260506102049 | 17 | 111 | 0.0 | 12.9 | 0.00 | 0.00 | 0.00 | 37 | 1012.4 |
| 20260506101523 | 18 | 56 | 8.0 | 9.7 | 0.00 | 0.00 | 0.00 | 38 | 1012.5 |
| 20260506101045 | 18 | 52 | 0.0 | 6.4 | 0.00 | 0.00 | 0.00 | 39 | 1012.5 |
| 20260506100538 | 17 | 124 | 1.6 | 8.0 | 0.00 | 0.00 | 0.00 | 40 | 1012.5 |
| 20260506100108 | 17 | 72 | 4.8 | 14.5 | 0.00 | 0.00 | 0.00 | 40 | 1012.6 |
| 20260506095524 | 17 | 104 | 4.8 | 14.5 | 0.00 | 0.00 | 0.00 | 41 | 1012.6 |
| 20260506095031 | 17 | 39 | 3.2 | 6.4 | 0.00 | 0.00 | 0.00 | 42 | 1012.6 |
| 20260506094546 | 16 | 291 | 0.0 | 9.7 | 0.00 | 0.00 | 0.00 | 43 | 1012.6 |
| 20260506094025 | 16 | 78 | 6.4 | 12.9 | 0.00 | 0.00 | 0.00 | 42 | 1012.5 |
| 20260506093522 | 17 | 74 | 9.7 | 12.9 | 0.00 | 0.00 | 0.00 | 42 | 1012.5 |
| 20260506093103 | 16 | 100 | 0.0 | 9.7 | 0.00 | 0.00 | 0.00 | 43 | 1012.4 |
| 20260506092520 | 16 | 102 | 3.2 | 9.7 | 0.00 | 0.00 | 0.00 | 45 | 1012.5 |
| 20260506092030 | 16 | 54 | 3.2 | 8.0 | 0.00 | 0.00 | 0.00 | 45 | 1012.5 |
| 20260506091520 | 16 | 155 | 1.6 | 9.7 | 0.00 | 0.00 | 0.00 | 44 | 1012.4 |
| 20260506091044 | 16 | 113 | 4.8 | 9.7 | 0.00 | 0.00 | 0.00 | 44 | 1012.4 |
| 20260506090531 | 16 | 60 | 0.0 | 4.8 | 0.00 | 0.00 | 0.00 | 44 | 1012.5 |
| 20260506090059 | 16 | 68 | 0.0 | 1.6 | 0.00 | 0.00 | 0.00 | 46 | 1012.5 |
| 20260506085526 | 16 | 225 | 0.0 | 9.7 | 0.00 | 0.00 | 0.00 | 47 | 1012.6 |
| 20260506085027 | 16 | 88 | 4.8 | 9.7 | 0.00 | 0.00 | 0.00 | 46 | 1012.5 |
| 20260506084533 | 16 | 131 | 1.6 | 6.4 | 0.00 | 0.00 | 0.00 | 45 | 1012.5 |
| 20260506084041 | 16 | 89 | 0.0 | 3.2 | 0.00 | 0.00 | 0.00 | 46 | 1012.5 |
| 20260506083527 | 16 | 154 | 0.0 | 4.8 | 0.00 | 0.00 | 0.00 | 46 | 1012.6 |
| 20260506083037 | 16 | 341 | 0.0 | 4.8 | 0.00 | 0.00 | 0.00 | 46 | 1012.6 |
| 20260506082535 | 16 | 107 | 0.0 | 3.2 | 0.00 | 0.00 | 0.00 | 48 | 1012.6 |
| 20260506082034 | 15 | 135 | 0.0 | 3.2 | 0.00 | 0.00 | 0.00 | 49 | 1012.6 |
| 20260506081533 | 15 | 135 | 0.0 | 3.2 | 0.00 | 0.00 | 0.00 | 48 | 1012.6 |
| 20260506081022 | 15 | 50 | 0.0 | 3.2 | 0.00 | 0.00 | 0.00 | 50 | 1012.7 |
| 20260506080525 | 15 | 83 | 0.0 | 4.8 | 0.00 | 0.00 | 0.00 | 50 | 1012.6 |
| 20260506073523 | 13 | 44 | 0.0 | 4.8 | 0.00 | 0.00 | 0.00 | 58 | 1012.7 |
| 20260506073030 | 13 | 308 | 0.0 | 4.8 | 0.00 | 0.00 | 0.00 | 59 | 1012.7 |
| 20260506072543 | 12 | 308 | 0.0 | 4.8 | 0.00 | 0.00 | 0.00 | 61 | 1012.7 |
| 20260506072022 | 13 | 308 | 1.6 | 3.2 | 0.00 | 0.00 | 0.00 | 60 | 1012.6 |
| 20260506071522 | 13 | 330 | 0.0 | 1.6 | 0.00 | 0.00 | 0.00 | 59 | 1012.6 |
| 20260506071028 | 12 | 326 | 0.0 | 1.6 | 0.00 | 0.00 | 0.00 | 61 | 1012.6 |
| 20260506070529 | 12 | 284 | 0.0 | 1.6 | 0.00 | 0.00 | 0.00 | 64 | 1012.6 |
| 20260506070105 | 11 | 282 | 0.0 | 3.2 | 0.00 | 0.00 | 0.00 | 65 | 1012.7 |
| 20260506062030 | 11 | 210 | 0.0 | 0.0 | 0.00 | 0.00 | 0.00 | 65 | 1012.7 |
| 20260506061541 | 10 | 210 | 0.0 | 0.0 | 0.00 | 0.00 | 0.00 | 66 | 1012.7 |
| 20260506061059 | 10 | 210 | 0.0 | 0.0 | 0.00 | 0.00 | 0.00 | 65 | 1012.7 |
| 20260506060543 | 10 | 210 | 0.0 | 0.0 | 0.00 | 0.00 | 0.00 | 65 | 1012.6 |
| 20260506060107 | 10 | 210 | 0.0 | 0.0 | 0.00 | 0.00 | 0.00 | 66 | 1012.7 |
| 20260506051024 | -17 | 0.0 | 0.0 | 0.00 | 0.00 | 0.00 | 1012.6 | ||
| 20260506050538 | -17 | 0.0 | 0.0 | 0.00 | 0.00 | 0.00 | 1012.6 | ||
| 20260506050119 | -17 | 0.0 | 0.0 | 0.00 | 0.00 | 0.00 | 1012.5 | ||
| 20260506045042 | 8 | 236 | 0.0 | 0.0 | 0.00 | 0.00 | 0.00 | 72 | 1012.4 |
| 20260506044528 | 8 | 236 | 0.0 | 1.6 | 0.00 | 0.00 | 0.00 | 72 | 1012.4 |
| 20260506044058 | 8 | 228 | 0.0 | 1.6 | 0.00 | 0.00 | 0.00 | 72 | 1012.4 |
| 20260506043541 | 7 | 228 | 0.0 | 1.6 | 0.00 | 0.00 | 0.00 | 72 | 1012.4 |
| 20260506043027 | 7 | 228 | 0.0 | 1.6 | 0.00 | 0.00 | 0.00 | 72 | 1012.4 |
| 20260506042537 | 7 | 255 | 0.0 | 0.0 | 0.00 | 0.00 | 0.00 | 72 | 1012.4 |
| 20260506042038 | 7 | 255 | 0.0 | 0.0 | 0.00 | 0.00 | 0.00 | 72 | 1012.4 |
| 20260506041545 | 7 | 255 | 0.0 | 0.0 | 0.00 | 0.00 | 0.00 | 72 | 1012.4 |
| 20260506041045 | 7 | 255 | 0.0 | 0.0 | 0.00 | 0.00 | 0.00 | 73 | 1012.4 |
| 20260506040530 | 7 | 255 | 0.0 | 0.0 | 0.00 | 0.00 | 0.00 | 72 | 1012.3 |
| 20260506040055 | 7 | 255 | 0.0 | 1.6 | 0.00 | 0.00 | 0.00 | 72 | 1012.3 |
| 20260506035530 | 8 | 255 | 0.0 | 1.6 | 0.00 | 0.00 | 0.00 | 72 | 1012.3 |
| 20260506035059 | 8 | 255 | 0.0 | 0.0 | 0.00 | 0.00 | 0.00 | 72 | 1012.4 |
| 20260506034540 | 8 | 255 | 0.0 | 0.0 | 0.00 | 0.00 | 0.00 | 71 | 1012.4 |
| 20260506034027 | 8 | 255 | 0.0 | 0.0 | 0.00 | 0.00 | 0.00 | 71 | 1012.4 |
| 20260506033540 | 8 | 255 | 0.0 | 0.0 | 0.00 | 0.00 | 0.00 | 71 | 1012.4 |
| 20260506033044 | 8 | 255 | 0.0 | 0.0 | 0.00 | 0.00 | 0.00 | 71 | 1012.3 |
| 20260506032520 | 8 | 255 | 0.0 | 1.6 | 0.00 | 0.00 | 0.00 | 71 | 1012.4 |
| 20260506032044 | 8 | 255 | 0.0 | 1.6 | 0.00 | 0.00 | 0.00 | 70 | 1012.4 |
| 20260506031525 | 8 | 273 | 0.0 | 1.6 | 0.00 | 0.00 | 0.00 | 70 | 1012.4 |
| 20260506031025 | 8 | 272 | 0.0 | 4.8 | 0.00 | 0.00 | 0.00 | 70 | 1012.4 |
| 20260506030529 | 8 | 277 | 1.6 | 6.4 | 0.00 | 0.00 | 0.00 | 70 | 1012.4 |
| 20260506030055 | 8 | 276 | 3.2 | 6.4 | 0.00 | 0.00 | 0.00 | 69 | 1012.4 |
| 20260506025535 | 8 | 271 | 1.6 | 6.4 | 0.00 | 0.00 | 0.00 | 69 | 1012.3 |
| 20260506025043 | 8 | 253 | 4.8 | 4.8 | 0.00 | 0.00 | 0.00 | 69 | 1012.3 |
| 20260506024528 | 8 | 256 | 4.8 | 4.8 | 0.00 | 0.00 | 0.00 | 69 | 1012.3 |
| 20260506024027 | 8 | 266 | 3.2 | 3.2 | 0.00 | 0.00 | 0.00 | 70 | 1012.3 |
| 20260506023540 | 8 | 250 | 0.0 | 1.6 | 0.00 | 0.00 | 0.00 | 70 | 1012.3 |
| 20260506023037 | 8 | 216 | 0.0 | 0.0 | 0.00 | 0.00 | 0.00 | 70 | 1012.4 |
| 20260506022540 | 8 | 217 | 0.0 | 0.0 | 0.00 | 0.00 | 0.00 | 71 | 1012.4 |
| 20260506022022 | 8 | 217 | 0.0 | 0.0 | 0.00 | 0.00 | 0.00 | 71 | 1012.5 |
| 20260506021529 | 8 | 217 | 0.0 | 0.0 | 0.00 | 0.00 | 0.00 | 71 | 1012.5 |
| 20260506021043 | 8 | 217 | 0.0 | 0.0 | 0.00 | 0.00 | 0.00 | 72 | 1012.4 |
| 20260506020530 | 7 | 217 | 0.0 | 0.0 | 0.00 | 0.00 | 0.00 | 72 | 1012.4 |
| 20260506020107 | 7 | 216 | 0.0 | 0.0 | 0.00 | 0.00 | 0.00 | 72 | 1012.5 |
| 20260506015544 | 8 | 216 | 0.0 | 0.0 | 0.00 | 0.00 | 0.00 | 70 | 1012.5 |
| 20260506015040 | 8 | 216 | 0.0 | 0.0 | 0.00 | 0.00 | 0.00 | 71 | 1012.6 |
| 20260506014541 | 8 | 216 | 0.0 | 0.0 | 0.00 | 0.00 | 0.00 | 70 | 1012.6 |
| 20260506014021 | 8 | 217 | 0.0 | 0.0 | 0.00 | 0.00 | 0.00 | 70 | 1012.6 |
| 20260506013521 | 8 | 217 | 0.0 | 1.6 | 0.00 | 0.00 | 0.00 | 68 | 1012.7 |
| 20260506013020 | 9 | 217 | 0.0 | 1.6 | 0.00 | 0.00 | 0.00 | 67 | 1012.7 |
| 20260506012533 | 9 | 217 | 0.0 | 3.2 | 0.00 | 0.00 | 0.00 | 67 | 1012.7 |
| 20260506012031 | 9 | 217 | 0.0 | 3.2 | 0.00 | 0.00 | 0.00 | 67 | 1012.8 |
| 20260506011520 | 9 | 221 | 3.2 | 3.2 | 0.00 | 0.00 | 0.00 | 67 | 1012.7 |
| 20260506011032 | 9 | 239 | 0.0 | 0.0 | 0.00 | 0.00 | 0.00 | 67 | 1012.7 |
| 20260506010538 | 9 | 207 | 0.0 | 0.0 | 0.00 | 0.00 | 0.00 | 66 | 1012.9 |
| 20260506010131 | 9 | 358 | 0.0 | 1.6 | 0.00 | 0.00 | 0.00 | 66 | 1013.0 |
| 20260506005520 | 9 | 360 | 0.0 | 11.3 | 0.00 | 0.00 | 0.00 | 65 | 1013.0 |
| 20260506005033 | 9 | 304 | 6.4 | 11.3 | 0.00 | 0.00 | 0.00 | 64 | 1013.1 |
| 20260506004531 | 10 | 291 | 6.4 | 9.7 | 0.00 | 0.00 | 0.00 | 62 | 1013.1 |
| 20260506004032 | 10 | 240 | 4.8 | 8.0 | 0.00 | 0.00 | 0.00 | 61 | 1013.0 |
| 20260506003529 | 10 | 246 | 6.4 | 8.0 | 0.00 | 0.00 | 0.00 | 61 | 1013.0 |